Temp
62 55 51 57 60 62 60 56 55 62 70 65 65 63 64 67 71 68 70 74 75 79 80 82 81 81 80 79 78 76 77 73 73 71 71 70 70 72 73 73 76 75 74 75
56 51 62 66 65 63 59 56 55 63 69 63 60 60 65 64 67 70 71 73 75 79 79 80 80 79 78 77 78 77 77 74 74 72 72 73 72 72 73 74 74 75 75 75
53 61 69 66 61 60 54 53 55 59 65 63 61 57 60 64 66 68 71 71 75 77 77 79 78 78 79 77 76 76 77 75 74 73 72 71 72 72 72 72 73 73 76 75
58 67 67 62 61 61 48 64 65 63 57 51 59 46 55 62 61 64 67 67 69 75 79 79 78 77 77 78 78 78 77 75 75 73 73 72 71 69 71 72 74 75 75 76
58 60 60 60 63 66 59 66 63 62 54 50 54 49 50 60 59 62 67 68 69 73 78 78 79 78 79 80 79 78 76 76 76 74 75 72 70 71 72 73 73 73 74 75
61 67 64 63 68 68 70 61 57 51 50 43 51 50 50 53 60 63 68 70 71 73 76 80 81 81 79 80 79 78 75 75 75 74 72 73 71 71 71 70 72 71 72 73
56 59 62 66 57 62 59 50 41 41 41 41 45 49 55 61 64 67 68 71 72 74 76 79 78 80 79 78 78 77 75 74 75 75 72 72 72 71 71 71 72 71 71 72
43 45 56 64 55 51 50 50 42 37 36 42 47 47 56 66 70 70 73 74 74 74 77 79 79 80 80 79 78 77 75 75 75 75 74 72 71 73 72 72 73 74 75 76
42 44 60 63 62 57 52 46 50 43 38 43 45 53 61 64 66 67 68 70 72 75 76 78 80 81 80 79 78 77 75 76 75 76 76 74 72 71 72 72 73 74 75 77
44 40 49 58 61 59 53 53 44 42 36 35 43 46 49 55 59 64 65 67 68 71 72 74 79 81 81 81 80 79 77 76 76 77 77 77 74 72 71 72 72 73 74 75
42 42 46 52 48 47 47 43 42 41 40 36 37 44 55 56 60 62 64 66 68 70 74 74 79 82 82 81 80 79 78 77 76 77 77 77 76 72 70 72 73 73 73 73
45 38 36 42 52 56 53 43 39 36 34 37 39 44 60 60 63 64 64 66 68 70 73 77 77 81 83 79 80 79 79 78 78 78 77 77 77 74 72 71 73 73 73 73
46 36 32 37 43 47 44 47 39 38 34 32 33 42 63 61 62 63 64 66 67 66 68 70 72 75 79 76 78 80 79 79 78 78 77 77 76 75 75 73 71 73 74 73
50 34 34 31 34 41 40 46 46 39 33 34 38 43 53 56 57 61 61 66 66 66 65 65 65 65 67 68 69 75 79 77 76 75 75 76 76 76 77 77 71 72 73 74
42 33 34 37 42 44 44 45 46 40 40 36 43 44 51 53 54 56 59 62 66 66 67 66 66 65 67 67 68 71 71 78 77 75 72 74 76 77 77 77 77 73 73 75
39 32 33 34 43 43 40 44 46 47 48 46 46 46 49 53 57 55 55 57 61 66 66 67 66 66 66 67 68 69 70 71 76 72 72 72 73 75 76 76 77 75 73 73
36 33 29 26 36 39 34 41 44 45 47 47 42 43 50 49 52 52 53 56 59 61 67 65 65 64 66 68 69 68 69 70 74 77 76 74 73 74 75 75 75 76 76 75
34 32 29 26 30 22 38 47 49 46 46 46 46 47 49 49 54 54 55 55 58 61 62 63 62 63 64 66 69 70 70 70 71 73 74 74 72 74 73 73 74 76 77 76
36 33 27 25 25 33 41 41 41 38 41 46 44 46 48 50 54 55 56 57 59 61 62 65 63 63 63 63 65 66 67 68 70 71 71 72 74 71 73 72 74 72 76 76
37 34 30 27 25 25 35 42 48 45 34 45 45 44 45 46 40 45 52 55 58 61 63 63 64 63 60 61 63 64 63 64 63 65 66 69 74 74 73 73 73 74 73 76
27 28 26 27 25 32 42 44 47 33 32 41 43 44 43 40 42 46 51 53 56 59 63 64 63 61 62 59 59 59 61 60 62 64 65 66 69 74 75 74 73 73 73 73
33 26 27 28 30 26 44 44 37 36 37 40 42 44 43 45 46 47 48 49 52 55 61 61 59 60 62 62 60 58 57 60 61 62 63 64 66 69 74 76 73 74 73 74
32 31 26 29 29 38 40 39 43 46 44 44 44 45 45 44 45 45 45 47 49 52 56 61 58 58 58 59 57 57 56 57 58 59 60 62 64 66 70 78 74 72 73 75
33 39 34 33 35 37 39 42 45 47 45 46 46 46 46 44 46 46 46 46 48 51 54 56 57 55 56 56 58 54 55 56 57 57 59 61 62 62 68 74 75 75 74 75
33 38 34 36 35 37 40 41 42 46 47 46 47 47 46 46 46 47 47 46 47 49 53 54 55 53 55 55 54 56 54 53 54 55 58 61 63 62 64 73 74 77 76 73
36 35 33 30 36 37 37 42 45 45 45 46 45 45 47 47 46 47 47 50 48 49 51 51 50 52 53 52 52 54 52 51 51 52 56 58 60 62 64 70 72 56 57 56
MSLP
1008.46 1009.03 1009.22 1009.31 1009.20 1008.90 1008.85 1008.92 1008.72 1007.92 1007.71 1008.13 1008.37 1008.65 1008.47 1009.14 1009.34 1010.04 1009.80 1009.83 1009.91 1009.93 1010.44 1011.22 1011.99 1012.78 1013.77 1014.50 1014.92 1015.43 1015.89 1016.60 1017.16 1017.40 1017.93 1018.40 1018.70 1018.76 1018.89 1018.88 1018.82 1018.92 1019.21 1019.35
1008.68 1008.71 1008.54 1008.41 1008.53 1008.64 1008.66 1008.70 1008.80 1008.20 1007.45 1008.13 1008.55 1008.89 1009.06 1009.95 1009.96 1009.86 1009.38 1009.68 1010.01 1009.98 1010.47 1010.71 1011.39 1012.24 1013.12 1013.89 1014.46 1015.02 1015.47 1016.20 1016.63 1016.88 1017.26 1017.78 1018.29 1018.57 1018.60 1018.59 1018.84 1018.92 1019.10 1019.28
1008.26 1007.99 1007.77 1008.05 1008.14 1008.41 1008.47 1008.36 1008.72 1008.65 1008.14 1008.43 1008.90 1009.58 1009.91 1010.16 1010.54 1010.44 1010.32 1010.30 1010.11 1009.78 1010.08 1010.46 1010.81 1011.46 1012.49 1013.48 1013.96 1014.47 1014.79 1015.46 1016.10 1016.61 1017.14 1017.70 1018.22 1018.58 1018.92 1019.04 1018.99 1019.07 1019.08 1019.21
1007.91 1007.30 1007.47 1007.67 1007.91 1008.15 1008.37 1007.74 1008.25 1008.64 1009.03 1009.13 1009.09 1010.22 1010.10 1010.06 1010.49 1010.30 1010.27 1010.13 1009.97 1009.83 1010.01 1010.19 1010.70 1011.08 1011.72 1012.67 1013.39 1013.84 1014.47 1014.96 1015.62 1016.24 1016.83 1017.35 1018.02 1018.64 1018.75 1018.76 1018.84 1018.93 1019.08 1019.26
1007.73 1007.29 1007.34 1007.54 1007.34 1007.60 1007.64 1007.67 1008.15 1008.82 1009.47 1009.84 1009.76 1010.24 1009.76 1010.03 1010.21 1009.26 1009.05 1009.60 1009.58 1009.60 1009.61 1009.64 1009.86 1010.56 1011.30 1011.86 1012.69 1013.46 1014.21 1014.67 1015.22 1015.84 1016.20 1016.94 1017.72 1018.23 1018.42 1018.70 1018.97 1019.11 1019.04 1019.11
1007.54 1007.05 1006.92 1006.80 1006.58 1007.00 1007.08 1007.87 1008.68 1009.72 1010.27 1010.86 1010.18 1010.26 1009.61 1009.74 1008.52 1008.19 1008.36 1008.38 1008.93 1009.30 1009.40 1009.27 1009.69 1010.24 1010.85 1011.66 1012.04 1013.04 1013.73 1014.31 1014.83 1015.38 1015.72 1016.43 1017.22 1017.98 1018.50 1018.82 1019.03 1019.22 1019.28 1019.29
1008.47 1008.15 1007.71 1007.43 1007.26 1007.47 1007.90 1008.89 1010.26 1011.16 1011.45 1011.62 1010.37 1010.27 1008.98 1007.65 1007.29 1006.99 1006.85 1006.77 1007.67 1007.96 1008.44 1008.84 1009.24 1009.48 1010.28 1010.82 1011.60 1012.30 1013.30 1014.00 1014.47 1014.90 1015.37 1015.91 1016.62 1017.35 1018.01 1018.48 1018.77 1019.07 1019.31 1019.34
1010.23 1009.77 1009.05 1008.67 1008.50 1008.62 1008.86 1009.47 1010.71 1011.69 1012.39 1011.86 1010.94 1010.02 1008.63 1007.36 1006.30 1006.46 1006.10 1005.94 1006.92 1007.19 1007.24 1007.68 1008.09 1008.56 1009.30 1010.21 1010.83 1011.52 1012.69 1013.35 1014.09 1014.46 1014.74 1015.38 1016.04 1016.85 1017.38 1017.92 1018.31 1018.52 1018.80 1018.74
1011.50 1011.24 1010.35 1009.74 1009.24 1009.38 1009.94 1010.48 1011.04 1012.05 1013.15 1012.49 1011.37 1009.87 1008.81 1007.93 1006.94 1006.26 1006.28 1006.74 1006.82 1006.96 1006.66 1006.66 1007.12 1007.67 1008.40 1009.36 1010.15 1010.76 1011.68 1012.84 1013.39 1013.84 1014.30 1014.88 1015.47 1016.22 1016.98 1017.44 1017.96 1018.20 1018.27 1018.30
1012.62 1012.41 1011.82 1010.92 1010.40 1010.62 1011.04 1011.74 1012.38 1013.11 1014.12 1013.91 1012.42 1011.03 1009.88 1009.24 1008.61 1007.86 1007.53 1007.18 1007.21 1007.00 1006.75 1006.90 1007.05 1007.11 1007.56 1008.19 1009.11 1010.34 1010.88 1011.60 1012.35 1013.06 1013.78 1014.29 1014.96 1015.49 1016.25 1017.02 1017.57 1017.92 1017.94 1017.96
1013.57 1013.60 1013.40 1012.44 1013.23 1013.14 1013.00 1013.97 1014.47 1014.84 1015.07 1014.96 1013.99 1012.63 1011.08 1010.39 1009.58 1009.16 1008.24 1007.51 1006.70 1006.36 1005.91 1005.62 1005.74 1006.42 1006.97 1007.68 1008.54 1009.44 1010.36 1011.04 1011.96 1012.58 1013.25 1013.72 1014.44 1015.09 1015.59 1016.34 1016.93 1017.38 1017.65 1017.76
1014.94 1015.52 1015.64 1015.53 1015.08 1014.62 1014.92 1016.03 1016.20 1016.72 1017.08 1016.24 1015.01 1013.68 1012.39 1011.48 1010.34 1009.76 1008.95 1007.66 1006.54 1005.14 1004.60 1004.30 1004.91 1005.78 1006.48 1007.44 1007.98 1008.61 1009.56 1010.11 1010.70 1011.34 1012.39 1013.08 1013.72 1014.55 1015.07 1015.59 1016.13 1016.71 1017.23 1017.46
1015.74 1017.02 1017.34 1017.08 1016.63 1016.14 1016.63 1017.15 1017.26 1017.80 1017.85 1017.99 1016.90 1014.67 1013.08 1012.20 1011.19 1010.16 1009.26 1008.10 1007.27 1006.21 1004.73 1005.06 1005.81 1006.02 1006.48 1007.56 1008.06 1008.23 1008.95 1009.63 1010.47 1011.04 1011.54 1012.52 1013.06 1013.78 1014.38 1014.76 1015.38 1015.96 1016.50 1016.92
1016.41 1018.64 1018.86 1018.92 1018.79 1018.57 1018.19 1017.95 1017.90 1018.32 1018.69 1018.57 1017.36 1015.93 1014.40 1013.30 1012.63 1011.34 1010.14 1009.16 1008.24 1007.37 1007.04 1007.05 1007.34 1007.65 1007.65 1008.04 1008.35 1008.62 1009.04 1009.56 1010.21 1010.85 1011.38 1011.43 1012.24 1012.75 1013.49 1014.04 1014.66 1015.16 1015.68 1016.25
1018.18 1019.86 1019.90 1019.82 1019.45 1018.90 1018.66 1018.33 1018.23 1018.40 1018.46 1018.46 1017.42 1016.64 1015.60 1015.11 1014.48 1013.44 1012.08 1010.89 1009.68 1009.04 1008.50 1008.31 1008.30 1008.41 1008.20 1008.23 1008.61 1008.92 1009.04 1009.58 1010.02 1010.57 1011.27 1011.34 1011.45 1012.02 1012.64 1013.30 1013.64 1014.22 1014.83 1015.36
1019.72 1020.74 1020.68 1020.46 1019.75 1019.16 1018.81 1018.34 1017.98 1017.99 1017.90 1017.89 1017.60 1016.82 1016.58 1015.81 1015.39 1014.67 1013.63 1012.38 1011.10 1010.35 1009.65 1009.18 1009.17 1008.86 1008.67 1008.54 1008.52 1008.60 1008.82 1009.35 1009.59 1010.15 1010.25 1010.99 1011.63 1011.85 1011.85 1012.38 1012.86 1013.31 1013.90 1014.59
1020.77 1021.44 1022.16 1021.77 1020.63 1019.50 1019.04 1018.66 1018.32 1018.14 1018.07 1017.96 1018.16 1017.88 1017.38 1016.76 1016.59 1016.14 1015.22 1013.99 1012.64 1011.66 1010.74 1010.48 1010.26 1009.82 1009.30 1008.45 1008.07 1008.62 1008.59 1008.51 1008.95 1009.39 1009.69 1010.08 1010.57 1010.96 1011.36 1011.56 1012.24 1012.43 1012.76 1013.54
1021.55 1022.28 1022.77 1023.09 1022.17 1021.13 1019.88 1018.98 1018.48 1018.69 1018.95 1019.06 1018.86 1018.66 1018.43 1018.15 1017.22 1016.94 1016.42 1015.17 1013.75 1012.58 1011.91 1011.04 1010.63 1010.16 1010.01 1009.31 1008.70 1008.36 1008.68 1008.53 1008.35 1008.62 1009.08 1009.42 1009.95 1010.04 1010.60 1010.96 1011.26 1011.59 1011.86 1012.40
1021.73 1022.59 1023.49 1023.71 1023.31 1021.94 1020.41 1020.54 1020.47 1020.53 1020.04 1019.97 1020.03 1019.61 1018.93 1018.41 1017.11 1016.55 1016.49 1015.87 1014.85 1013.74 1012.94 1012.00 1011.10 1011.02 1011.10 1010.60 1010.52 1010.04 1009.50 1008.88 1009.21 1009.10 1009.17 1009.44 1009.67 1009.74 1010.01 1010.21 1010.45 1010.80 1011.14 1011.51
1022.44 1022.66 1023.30 1024.02 1023.65 1022.75 1021.52 1021.35 1020.77 1020.89 1021.30 1020.98 1021.01 1020.76 1020.09 1019.53 1018.74 1017.46 1016.78 1016.37 1015.43 1014.46 1013.48 1012.58 1011.51 1011.07 1011.69 1011.69 1011.62 1011.11 1010.32 1010.67 1010.94 1010.46 1009.81 1009.48 1009.04 1008.92 1008.94 1009.32 1009.47 1009.59 1010.19 1010.44
1023.78 1024.10 1024.08 1024.06 1023.56 1022.38 1022.02 1021.46 1020.82 1021.77 1022.88 1022.33 1022.20 1021.69 1021.30 1020.87 1020.39 1019.22 1017.89 1016.73 1016.13 1015.12 1013.77 1012.97 1011.98 1011.40 1011.28 1011.59 1011.50 1010.47 1010.71 1010.80 1010.56 1010.34 1010.09 1009.63 1008.96 1008.73 1008.29 1008.57 1008.70 1008.96 1009.32 1009.83
1024.48 1024.69 1024.73 1024.31 1023.71 1022.91 1022.21 1021.57 1022.19 1022.40 1022.34 1022.46 1022.38 1022.06 1021.66 1021.07 1019.94 1019.66 1018.73 1017.47 1016.21 1015.24 1014.21 1013.18 1012.48 1011.97 1011.45 1011.71 1011.40 1011.61 1011.53 1011.40 1011.19 1011.01 1010.92 1010.29 1009.20 1008.51 1008.15 1007.84 1007.96 1007.98 1008.65 1009.15
1024.51 1024.19 1024.17 1024.37 1023.35 1022.49 1022.37 1022.50 1022.33 1022.05 1022.05 1022.06 1022.11 1021.90 1021.56 1020.91 1020.02 1019.14 1018.93 1017.90 1016.55 1015.45 1014.60 1013.54 1012.88 1012.40 1012.42 1012.10 1011.87 1010.92 1011.27 1010.68 1010.25 1010.56 1010.03 1009.50 1008.88 1007.84 1007.45 1006.74 1006.76 1007.30 1007.67 1008.16
1024.29 1024.03 1023.95 1023.78 1022.56 1022.24 1022.22 1022.26 1022.34 1022.28 1021.99 1021.69 1021.48 1021.28 1021.00 1020.33 1019.83 1019.05 1018.30 1017.28 1016.74 1015.41 1014.22 1013.68 1013.40 1012.83 1011.97 1012.10 1012.00 1011.36 1010.70 1011.83 1011.53 1011.04 1010.06 1009.82 1008.70 1007.32 1006.68 1005.82 1005.63 1006.30 1006.76 1006.94
1024.11 1024.10 1023.92 1023.66 1022.68 1022.42 1021.81 1021.88 1021.84 1021.87 1021.50 1021.12 1020.70 1020.44 1020.09 1019.62 1018.96 1018.22 1017.15 1016.48 1015.22 1015.00 1014.27 1013.55 1013.08 1012.81 1012.46 1011.58 1010.88 1010.96 1011.68 1011.01 1011.06 1010.61 1010.00 1009.92 1008.82 1007.33 1006.46 1005.21 1004.68 1004.87 1005.25 1005.65
1022.84 1022.56 1023.28 1022.75 1021.90 1021.95 1021.69 1021.37 1021.33 1021.24 1020.83 1020.57 1020.12 1019.55 1019.16 1018.76 1018.04 1017.37 1016.10 1015.09 1014.46 1013.84 1013.60 1013.47 1013.16 1012.77 1011.94 1011.48 1010.84 1011.86 1011.14 1010.26 1010.69 1010.43 1010.13 1009.48 1009.14 1007.23 1006.05 1005.18 1004.79 1004.24 1004.56 1004.83
Wind_Speed
4 5 5 7 7 6 3 3 3 4 6 2 9 9 17 10 13 17 21 18 19 19 16 20 18 19 17 15 15 14 13 9 6 3 4 2 3 2 2 3 5 5 4 5
6 4 8 3 6 5 3 2 4 6 6 3 3 7 6 4 5 17 23 18 16 17 16 20 19 19 18 19 17 15 14 12 8 4 3 3 3 2 1 3 3 5 5 5
5 5 4 3 1 1 2 5 4 6 6 5 6 4 5 2 2 2 4 5 10 15 15 18 19 21 19 19 19 17 16 14 10 7 4 3 4 3 2 0 2 4 5 5
4 3 6 5 5 7 4 8 6 4 3 1 3 4 6 12 6 9 10 7 7 14 13 15 18 21 21 20 17 17 15 14 10 10 7 6 5 4 3 4 3 3 5 5
6 2 5 4 9 8 10 6 6 5 4 4 3 3 4 9 11 18 19 14 11 12 15 17 20 21 21 20 18 16 15 13 11 11 11 7 5 3 2 3 4 4 4 5
4 2 3 6 5 9 6 2 6 5 4 2 7 6 6 6 16 15 17 17 13 12 14 16 17 18 19 17 17 16 16 15 12 12 10 11 9 7 4 3 4 3 3 3
5 4 4 6 2 5 7 7 3 3 2 6 5 4 9 9 11 18 24 23 17 17 15 16 17 19 18 20 19 17 17 16 14 13 11 11 10 9 8 6 5 5 3 3
3 3 6 8 2 1 2 7 7 6 4 4 4 5 3 8 12 8 17 16 13 18 17 19 15 20 20 21 21 20 18 17 15 14 14 10 9 6 5 6 4 4 5 6
3 3 5 5 6 2 4 4 2 8 4 4 2 5 3 8 14 12 4 5 9 16 15 19 19 20 20 21 21 22 20 17 17 17 13 11 10 9 7 7 5 4 5 5
1 2 2 5 5 8 7 1 3 5 4 4 4 3 2 8 8 8 9 7 5 7 9 11 17 18 19 19 20 19 20 21 19 18 15 12 12 10 8 6 7 7 6 6
3 4 5 3 6 4 7 7 6 4 4 5 4 4 2 3 5 8 9 8 11 12 17 16 18 18 18 17 19 20 19 20 17 16 15 14 12 10 9 9 8 7 6 6
5 5 3 3 7 7 16 4 4 5 4 1 2 2 6 9 7 6 9 11 14 12 17 22 16 16 17 17 19 20 19 20 19 18 16 15 13 11 11 10 9 8 8 6
3 5 4 6 7 9 8 6 4 4 3 2 2 4 13 11 9 10 12 13 13 15 10 5 5 8 13 13 15 17 17 17 15 16 17 14 14 13 13 12 10 9 8 7
7 5 5 6 4 3 2 3 5 5 4 3 4 7 13 18 11 12 14 15 14 10 12 10 9 7 6 6 5 6 12 13 13 14 15 17 16 15 15 13 10 10 10 9
6 4 2 4 6 3 4 2 2 4 4 4 7 6 11 11 13 11 11 13 16 13 14 10 8 6 6 2 2 1 3 11 13 14 13 14 14 15 13 13 13 11 10 11
5 2 2 3 5 3 1 3 6 7 7 6 5 9 6 7 12 15 17 14 11 11 12 11 11 11 9 4 6 4 5 5 10 13 15 12 12 12 15 14 13 13 11 11
3 4 3 3 6 8 6 4 3 1 1 4 7 2 7 8 11 13 16 16 15 12 9 8 9 11 11 10 4 6 7 7 9 16 15 15 15 16 15 13 13 14 14 12
4 4 2 2 4 2 5 5 3 9 8 8 6 8 8 8 11 3 12 15 16 15 14 8 9 11 12 13 13 6 3 4 6 11 13 13 16 16 12 13 15 14 13 14
2 5 3 4 3 5 2 6 6 6 2 4 3 8 12 14 8 6 12 17 14 13 11 10 7 9 8 12 11 9 11 7 7 5 2 8 11 14 13 14 16 13 13 12
5 6 5 3 4 4 1 6 9 5 4 10 10 8 12 12 4 5 15 17 17 16 8 10 9 8 6 9 8 6 9 8 7 7 6 8 7 13 16 17 17 13 11 14
4 4 3 1 3 4 3 11 5 6 2 7 9 9 11 8 4 11 17 18 15 15 13 6 8 8 5 5 7 11 9 10 10 11 9 9 6 8 13 14 11 12 12 10
1 3 2 1 3 6 5 3 2 2 1 3 11 12 14 16 19 13 15 16 17 17 16 8 4 4 8 8 8 8 9 8 8 9 10 11 6 6 9 14 12 13 12 13
4 7 5 7 6 2 2 4 7 6 9 12 11 12 14 17 18 19 16 16 17 18 13 7 4 3 3 7 5 7 8 13 13 11 14 12 10 8 9 13 14 11 13 13
3 2 2 3 4 4 1 1 2 8 9 11 12 13 13 18 17 20 19 17 14 15 14 6 5 5 5 3 3 3 5 6 8 10 10 15 10 9 11 7 7 9 10 12
5 4 4 6 8 6 6 7 3 6 9 10 12 13 15 16 17 18 19 20 18 14 13 7 6 5 5 4 6 5 4 4 8 8 8 12 10 10 11 8 8 11 12 13
6 8 7 8 8 5 6 6 7 8 9 10 14 13 13 13 16 17 17 15 15 14 9 6 6 4 4 6 8 4 3 4 5 7 8 6 10 9 9 9 9 4 7 14
Wind_Direction
203 110 186 200 186 183 159 155 273 281 234 246 204 199 202 192 178 187 191 197 201 185 181 178 170 174 175 178 172 177 169 169 161 144 136 116 190 182 187 173 203 176 168 169
46 188 212 214 166 182 192 239 278 293 280 149 136 235 185 98 199 192 194 194 204 191 171 176 175 170 170 176 179 173 179 170 173 164 150 141 148 197 197 159 193 188 170 174
141 215 171 168 266 206 230 225 187 212 342 44 113 11 177 160 237 289 215 216 221 203 179 181 174 170 174 180 177 178 179 177 174 164 127 90 80 69 61 115 214 208 179 181
189 253 189 202 227 145 255 213 222 239 97 246 149 267 248 212 218 245 230 231 236 210 198 181 175 177 178 183 182 182 179 177 179 166 165 149 154 155 190 182 193 210 197 191
239 229 170 196 220 165 228 188 206 194 153 103 316 78 260 160 211 234 223 225 224 214 214 191 186 181 185 180 181 183 184 183 177 179 168 162 148 166 168 163 189 200 226 207
223 268 153 206 231 178 234 137 53 57 118 77 232 133 286 189 221 234 238 232 218 211 221 209 198 181 184 186 179 185 179 190 182 179 168 172 167 166 164 182 183 192 222 219
348 24 344 41 74 27 70 73 353 12 30 197 237 80 240 247 231 212 216 227 204 214 208 210 193 191 185 184 185 180 186 188 192 184 176 178 180 171 181 188 187 169 179 215
106 32 10 319 86 235 305 145 153 183 178 222 201 171 294 287 275 228 232 232 200 200 205 200 195 193 189 190 186 181 186 190 191 193 187 179 175 181 179 180 187 192 195 209
103 114 327 2 41 60 313 42 284 101 25 70 264 289 277 346 17 14 314 197 219 217 211 201 192 194 190 189 191 186 181 192 192 195 192 186 181 171 184 181 187 200 200 213
47 82 350 287 15 20 86 312 56 6 123 152 313 306 244 356 348 1 15 340 271 236 217 204 214 198 193 191 190 191 187 188 190 191 193 193 189 183 171 166 189 205 213 211
18 77 295 37 24 346 11 7 16 109 94 144 133 287 297 300 341 341 325 314 288 240 229 209 206 206 198 193 189 190 190 188 189 192 194 194 193 189 167 177 190 201 207 206
335 121 57 90 327 110 83 81 93 97 325 31 220 102 355 315 330 352 355 356 344 282 236 214 198 198 195 193 189 191 194 192 191 189 189 196 190 189 185 188 190 187 203 202
320 17 42 16 351 10 43 14 55 85 64 65 83 282 337 334 346 347 2 7 8 6 35 94 142 184 196 191 199 194 194 196 193 191 187 191 195 193 203 197 186 186 194 207
80 65 120 171 182 214 359 9 73 98 75 291 226 301 325 329 349 339 348 4 11 35 43 56 50 53 68 70 80 188 197 195 192 193 200 188 194 197 204 205 185 185 188 199
82 98 112 190 220 221 199 158 99 119 178 149 263 297 308 322 337 342 339 345 42 42 49 32 27 21 23 28 269 212 178 199 190 193 199 207 199 198 199 207 197 191 189 202
358 135 46 322 328 328 278 252 218 199 204 223 227 283 7 343 354 356 354 343 354 37 21 21 34 32 8 296 243 199 191 214 186 197 198 192 202 204 200 203 207 192 193 199
70 112 77 293 324 328 48 58 58 151 46 238 208 318 334 359 342 360 345 356 357 343 6 13 38 29 17 7 233 194 190 173 205 202 199 198 198 202 207 200 204 206 203 198
115 84 86 176 11 2 234 3 313 106 70 29 29 1 348 337 303 286 353 351 353 4 350 23 32 36 11 16 11 1 308 210 182 194 203 200 205 209 203 196 202 208 203 207
128 124 117 136 194 284 347 27 7 4 181 52 353 344 332 340 297 230 359 349 342 344 348 342 65 52 21 24 2 8 356 9 14 12 256 220 218 206 203 208 208 206 206 207
65 67 114 156 153 237 242 339 323 292 241 10 7 348 339 350 344 271 340 332 332 329 338 337 342 81 39 13 359 14 32 25 10 352 330 306 281 207 202 209 211 205 200 212
13 8 95 195 227 276 21 315 297 173 295 342 344 324 324 304 255 302 310 310 318 319 319 334 344 2 36 17 5 16 16 5 350 332 315 295 289 287 224 219 206 199 202 199
150 128 191 104 239 271 15 4 1 305 227 321 319 309 298 291 295 291 293 302 308 308 312 315 327 5 355 17 20 11 358 347 337 319 303 289 278 249 264 220 210 200 197 205
187 184 186 180 222 131 147 214 274 278 296 300 298 295 291 287 286 296 292 286 293 292 293 290 304 339 324 352 348 24 340 343 349 335 320 316 301 292 268 240 210 202 199 203
256 178 212 43 279 226 247 251 325 313 298 293 281 276 275 278 280 284 287 280 269 275 282 263 233 262 298 322 336 34 12 327 318 323 327 312 310 315 284 240 196 205 207 204
203 143 201 262 286 295 264 205 215 285 278 282 281 276 275 271 275 280 283 273 272 256 260 253 242 245 263 315 347 354 315 344 322 329 327 316 311 319 308 244 209 204 217 207
184 184 183 222 218 179 237 223 232 269 285 294 309 290 280 270 285 282 280 268 252 257 244 235 233 222 288 320 325 259 286 12 322 325 309 317 308 321 320 298 222 171 242 230